Location: Unspecified
(42.9670°N, 0.0000°E)
Time: 06:01:49
(UTC+00:00)

A-11 Canister half - Visible Passes

Search period start: 04 April 2026 00:00
Search period end: 14 April 2026 00:00
Orbit: 1513 x 1686 km, 47.2° (Epoch: 28 March)

Date Brightness Start Highest point End Pass type
(mag) Time Alt. Az. Time Alt. Az. Time Alt. Az.
11 Apr 10.8 04:40:51 10° S 04:47:38 23° SE 04:54:32 10° E visible
12 Apr 10.8 04:18:15 10° S 04:24:42 21° SE 04:31:15 10° E visible
13 Apr 10.8 03:55:42 10° SSE 04:01:46 20° SE 04:07:56 10° E visible
